[[{"header":{"parameterUnit":"m.s-1","parameterCategory":1,"la1":30.2991,"la2":30.254,"lo1":-89.0895,"lo2":-89.0444,"dy":0.0017,"dx":0.0017,"nx":28,"ny":28,"refTime":"2025-06-09T03:00:00:Z","depth":0,"parameterNumber":2,"parameterNumberName":"U-component_of_WINDS"},"data":[0,0,0,0,0,0,0,0,0,0,0,0,0,0,0,0,0,0,0,0,0,0,0,0,0,0,0,0,0,0,0,0,0,0,0,0,0,0,0,0,0,0,0,0,0,0,0,0,0,0,0,0,0,0,0,0,0,0,5.3238,5.3239,0,5.3351,5.3353,5.3354,5.3263,5.3259,5.3256,5.3252,5.3371,5.3377,5.3384,0,0,0,0,0,0,0,0,0,0,0,0,0,5.2942,5.2948,5.3238,5.3239,5.3241,5.3351,5.3353,5.3354,5.3264,5.3259,5.3255,5.325,5.3368,5.3376,5.3384,0,0,0,0,0,0,0,0,0,0,0,0,0,5.3065,5.295,5.3237,5.3209,5.3207,5.3351,5.3353,5.3355,5.3265,5.3259,5.3253,5.3248,5.3366,5.3376,5.3386,5.3564,0,0,5.3417,5.3421,0,0,0,0,0,0,0,0,5.3058,5.3076,5.3212,5.3211,5.321,5.3287,5.3292,5.3425,5.3266,5.3243,5.3252,5.3245,5.3348,5.3359,5.3393,5.357,5.3575,5.3417,5.3424,5.3428,5.3431,0,0,0,0,0,0,0,5.305,5.307,5.3283,5.3214,5.3212,5.319,5.3201,5.3317,5.3327,5.3245,5.3238,5.3253,5.3346,5.3384,5.3395,5.3576,5.3417,5.3426,5.3432,5.3436,5.3901,5.3907,0,0,0,0,0,0,5.3044,5.3064,5.3279,5.3286,5.3118,5.32,5.3212,5.3268,5.3325,5.3328,5.3258,5.3248,5.3369,5.3383,5.3399,5.3608,5.3428,5.3437,5.3443,5.3895,5.3902,5.3909,0,0,0,0,0,0,5.3038,5.3064,5.3274,5.3173,5.3198,5.3211,5.3275,5.3273,5.3311,5.3335,5.3336,5.3294,5.3365,5.3385,5.3523,5.3611,5.3442,5.3451,5.3887,5.3897,5.3906,5.4031,0,0,0,0,0,0,5.303,5.3062,5.313,5.3175,5.3204,5.3397,5.328,5.328,5.3328,5.3317,5.3369,5.3373,5.3362,5.3508,5.3533,5.3622,5.3459,5.3879,5.3892,5.3903,5.4019,5.4043,5.4064,0,0,0,0,0,5.3019,5.3163,5.3134,5.3161,5.329,5.3402,5.3418,5.3402,5.3336,5.3404,5.3419,5.3371,5.3598,5.3523,5.355,5.3644,5.3874,5.3888,5.3902,5.4009,5.4039,5.4064,0,0,0,0,0,0,5.3129,5.3168,5.3137,5.3299,5.3348,5.3386,5.3472,5.3435,5.3505,5.3491,5.3469,5.3482,5.3626,5.3649,5.3565,5.3818,5.3725,5.3745,5.3797,5.3826,5.3848,5.3839,5.3468,0,0,0,0,0,5.3172,5.326,5.3289,5.3429,5.3455,5.346,5.3508,5.3491,5.3541,5.3561,5.3587,5.3637,5.3719,5.3774,5.3852,5.4022,5.4031,5.41,5.4123,5.4141,5.4158,5.4247,5.4277,5.3955,5.3955,5.3955,0,0,5.3262,5.3294,5.3351,5.3452,5.3487,5.3578,5.3478,5.3579,5.3645,5.3577,5.3707,5.3728,5.3783,5.3937,5.4006,5.396,5.4249,5.4159,5.4174,5.4181,5.4264,5.4295,5.4322,5.3965,5.3963,5.3962,0,0,5.3471,5.3505,5.3623,5.3661,5.3715,5.3717,5.3745,5.379,5.38,5.393,5.388,5.3959,5.4102,5.4142,5.4181,5.4403,5.436,5.4429,5.4547,5.4633,5.4659,5.4681,5.4757,5.4785,5.4446,5.4446,5.4447,0,5.3575,5.3709,5.3689,5.3793,5.3838,5.3779,5.3897,5.3935,5.4013,5.4045,5.3993,5.4168,5.4202,5.4362,5.4416,5.4451,5.4481,5.4422,5.4657,5.4679,5.4699,5.4771,5.48,5.4454,5.4453,5.4452,5.4452,0,5.3834,5.3928,5.4017,5.4091,5.4146,5.4257,5.4253,5.4311,5.429,5.4297,5.4429,5.4466,5.4548,5.4585,5.4567,5.4743,5.4712,5.4659,5.4565,5.4738,5.4805,5.4833,5.4465,5.4462,5.446,5.4458,0,0,5.4115,5.4175,5.4208,5.4239,5.4294,5.4366,5.4474,5.4552,5.4601,5.4657,5.4745,5.4866,5.4816,5.486,5.4845,5.4922,5.509,5.4858,5.4859,5.4897,5.5283,5.5321,5.5353,5.5063,5.5068,5.5072,5.5277,0,5.4324,5.451,5.4493,5.4669,5.4754,5.4698,5.4792,5.4835,5.4844,5.4917,5.4928,5.5012,5.4942,5.4967,5.504,5.5054,5.5167,5.504,5.5143,5.5147,5.5128,5.5389,5.543,5.5622,5.5304,5.5308,5.5312,0,5.4592,5.4654,5.4838,5.4877,5.4912,5.4996,5.5065,5.5137,5.5184,5.5185,5.5233,5.5204,5.5311,5.5216,5.5362,5.5276,5.5317,5.5331,5.5338,5.5345,5.5238,5.54,5.5683,5.5711,5.5353,5.535,5.5347,0,5.4774,5.4905,5.503,5.506,5.5109,5.5169,5.5192,5.5234,5.5281,5.5343,5.5372,5.5446,5.5486,5.5543,5.5534,5.5466,5.5682,5.5587,5.5684,5.5684,5.573,5.5727,5.6021,5.5762,5.5762,5.5761,5.5761,0,5.5008,5.5122,5.5112,5.519,5.5315,5.5295,5.542,5.5436,5.5473,5.5552,5.551,5.5584,5.5569,5.5643,5.5637,5.5757,5.5777,5.5779,5.5776,5.5781,5.5781,5.5807,5.5792,5.5769,5.5767,5.5766,5.5764,0,5.5232,5.5231,5.5363,5.5399,5.541,5.5501,5.553,5.5603,5.5607,5.5707,5.573,5.5738,5.5823,5.582,5.5917,5.5913,5.6059,5.6042,5.6043,5.6038,5.6134,5.6124,5.6452,5.6493,5.6211,5.6214,5.6216,0,5.5379,5.5465,5.5509,5.5558,5.5584,5.5665,5.5712,5.5696,5.5747,5.5805,5.587,5.5951,5.6014,5.6153,5.6167,5.624,5.6223,5.6333,5.6233,5.6235,5.622,5.6214,5.6221,5.6351,5.6355,5.6357,5.6359,0,5.564,5.5635,5.5704,5.5773,5.5831,5.5885,5.5934,5.5977,5.5965,5.6025,5.611,5.6159,5.6257,5.6337,5.6406,5.643,5.6393,5.6391,5.6416,5.6422,5.6417,5.6418,5.6093,5.6383,5.638,5.6379,5.6377,5.6376,5.5828,5.5901,5.5941,5.602,5.6055,5.6101,5.6169,5.6182,5.6253,5.633,5.6316,5.6411,5.6454,5.6543,5.6574,5.6647,5.6608,5.6646,5.6655,5.6664,5.6673,5.6408,5.666,5.666,5.6659,5.6658,5.6658,0,5.6084,5.6107,5.6179,5.6248,5.6309,5.6268,5.632,5.6373,5.6457,5.65,5.6562,5.6659,5.6736,5.6756,5.6829,5.6884,5.6868,5.6903,5.6898,5.6903,5.6706,5.6675,5.6915,5.6915,5.6914,5.6914,5.6914,5.6914,5.6224,5.6342,5.6342,5.6477,5.6499,5.6591,5.6623,5.6665,5.6699,5.6808,5.6871,5.6883,5.6916,5.6991,5.7059,5.7063,5.709,5.7132,5.7129,5.6944,5.6918,5.6893,5.6863,5.7139,5.7139,5.7319,5.7321,5.7322]},{"header":{"parameterUnit":"m.s-1","parameterCategory":1,"la1":30.2991,"la2":30.254,"lo1":-89.0895,"lo2":-89.0444,"dy":0.0017,"dx":0.0017,"nx":28,"ny":28,"refTime":"2025-06-09T03:00:00:Z","depth":0,"parameterNumber":3,"parameterNumberName":"V-component_of_WINDS"},"data":[0,0,0,0,0,0,0,0,0,0,0,0,0,0,0,0,0,0,0,0,0,0,0,0,0,0,0,0,0,0,0,0,0,0,0,0,0,0,0,0,0,0,0,0,0,0,0,0,0,0,0,0,0,0,0,0,0,0,5.247,5.2471,0,5.2634,5.2636,5.2638,5.2629,5.2626,5.2624,5.2622,5.2786,5.2792,5.2799,0,0,0,0,0,0,0,0,0,0,0,0,0,5.2141,5.2147,5.2469,5.2471,5.2474,5.2634,5.2636,5.2638,5.2629,5.2626,5.2623,5.2621,5.2784,5.2791,5.2799,0,0,0,0,0,0,0,0,0,0,0,0,0,5.2292,5.2149,5.2469,5.2488,5.2492,5.2634,5.2636,5.2639,5.263,5.2626,5.2622,5.2619,5.2781,5.279,5.28,5.2932,0,0,5.283,5.2835,0,0,0,0,0,0,0,0,5.2284,5.2304,5.2483,5.2487,5.2491,5.2607,5.258,5.2737,5.2631,5.2577,5.2622,5.2617,5.2729,5.2743,5.2781,5.294,5.2947,5.2831,5.2837,5.2841,5.2844,0,0,0,0,0,0,0,5.2273,5.2297,5.2534,5.2486,5.2491,5.2487,5.2504,5.261,5.2671,5.2581,5.2581,5.2601,5.273,5.2772,5.2785,5.2949,5.2831,5.284,5.2846,5.285,5.3221,5.3225,0,0,0,0,0,0,5.2259,5.2288,5.2529,5.2539,5.2377,5.2495,5.2515,5.2574,5.267,5.2681,5.2604,5.26,5.2757,5.2774,5.2791,5.295,5.2841,5.2851,5.2856,5.3217,5.3222,5.3226,0,0,0,0,0,0,5.2252,5.2281,5.2523,5.2414,5.2444,5.2505,5.2571,5.2579,5.262,5.2687,5.2697,5.2636,5.2755,5.2777,5.2897,5.2955,5.2855,5.2864,5.3212,5.3219,5.3224,5.3269,0,0,0,0,0,0,5.2243,5.2278,5.2331,5.2415,5.245,5.2628,5.2574,5.2584,5.2638,5.2634,5.2719,5.273,5.2754,5.2882,5.2907,5.2967,5.2872,5.3207,5.3215,5.3222,5.3263,5.3276,5.3287,0,0,0,0,0,5.2231,5.2336,5.2333,5.2362,5.2517,5.2631,5.2651,5.2678,5.2643,5.2695,5.2737,5.2727,5.2945,5.2894,5.2922,5.2986,5.3204,5.3213,5.3222,5.3257,5.3273,5.3287,0,0,0,0,0,0,5.2256,5.2348,5.2345,5.2482,5.2549,5.2629,5.2696,5.2694,5.2772,5.2765,5.2793,5.2812,5.2932,5.2971,5.2913,5.3117,5.307,5.3084,5.3087,5.3103,5.3115,5.3102,5.288,0,0,0,0,0,5.2278,5.2364,5.2439,5.2552,5.2586,5.2635,5.2686,5.27,5.277,5.2798,5.2849,5.2916,5.2999,5.3054,5.3134,5.3269,5.3285,5.3326,5.3338,5.3348,5.336,5.3431,5.3449,5.3255,5.3255,5.3255,0,0,5.2322,5.2383,5.2436,5.2558,5.2612,5.2699,5.2659,5.2753,5.2817,5.2812,5.2928,5.2968,5.3044,5.3171,5.3229,5.3207,5.3417,5.3359,5.3367,5.3373,5.3442,5.346,5.3476,5.3261,5.326,5.3259,0,0,5.2448,5.2505,5.2603,5.2658,5.274,5.2772,5.2796,5.2877,5.2903,5.302,5.3017,5.3093,5.3237,5.329,5.3336,5.3481,5.3473,5.3506,5.3569,5.3638,5.3653,5.3667,5.3716,5.3734,5.3518,5.3518,5.3518,0,5.2493,5.2626,5.2654,5.2749,5.2801,5.2802,5.2901,5.2952,5.3055,5.3091,5.3065,5.3244,5.3295,5.3433,5.3468,5.3507,5.3532,5.3496,5.3649,5.3663,5.3676,5.3723,5.3742,5.3521,5.3521,5.3521,5.352,0,5.2676,5.2768,5.2837,5.2938,5.2999,5.3095,5.3135,5.3193,5.3202,5.3236,5.3353,5.3415,5.3507,5.3541,5.3551,5.368,5.3663,5.3643,5.3596,5.3698,5.3742,5.376,5.3526,5.3525,5.3524,5.3523,0,0,5.2822,5.2937,5.2961,5.3006,5.3096,5.3166,5.3261,5.3352,5.34,5.3471,5.3549,5.367,5.3652,5.3704,5.3719,5.378,5.3887,5.3752,5.3754,5.3773,5.403,5.4043,5.4064,5.3883,5.3887,5.389,5.4023,0,5.2955,5.3126,5.3153,5.3301,5.3384,5.3386,5.3468,5.3531,5.3564,5.3638,5.3675,5.3759,5.373,5.3761,5.3821,5.3861,5.3939,5.3852,5.3954,5.3957,5.3933,5.4088,5.4102,5.4225,5.4041,5.4044,5.4046,0,5.3134,5.321,5.3367,5.3444,5.3479,5.3553,5.3637,5.3709,5.3779,5.3799,5.3857,5.3865,5.3961,5.391,5.4041,5.3981,5.4024,5.405,5.4056,5.4065,5.4007,5.4098,5.4265,5.4282,5.4074,5.4072,5.407,0,5.3221,5.3363,5.3475,5.3513,5.3606,5.3658,5.3698,5.3765,5.3817,5.3891,5.3924,5.4007,5.4052,5.4115,5.4144,5.4105,5.4272,5.4224,5.4289,5.4288,5.4323,5.432,5.4496,5.4354,5.4354,5.4353,5.4353,0,5.3366,5.3461,5.3515,5.3584,5.369,5.3719,5.3822,5.3861,5.3921,5.3995,5.4001,5.407,5.4105,5.4179,5.4202,5.4305,5.4326,5.4343,5.4347,5.4341,5.4339,5.4368,5.436,5.4358,5.4357,5.4356,5.4355,0,5.3481,5.3522,5.3643,5.3721,5.3743,5.3817,5.3882,5.3948,5.3981,5.4074,5.4098,5.4149,5.4236,5.4272,5.4378,5.4393,5.4511,5.451,5.4488,5.4489,5.4551,5.4543,5.4751,5.4778,5.462,5.4621,5.4623,0,5.357,5.3643,5.3729,5.378,5.3822,5.3904,5.3957,5.3989,5.4044,5.4128,5.4182,5.427,5.4341,5.4479,5.4524,5.4605,5.4605,5.4672,5.4617,5.4607,5.4603,5.4597,5.4603,5.4681,5.4683,5.4684,5.4685,0,5.3722,5.3738,5.3816,5.39,5.3963,5.4031,5.4097,5.4137,5.4178,5.4239,5.4329,5.4384,5.4493,5.4578,5.4661,5.47,5.4699,5.4702,5.4721,5.4715,5.4697,5.4705,5.4513,5.4697,5.4696,5.4695,5.4694,5.4694,5.3825,5.3889,5.3959,5.4045,5.4098,5.4159,5.4223,5.4264,5.434,5.4432,5.4445,5.454,5.4606,5.4718,5.476,5.4833,5.4816,5.4844,5.485,5.4856,5.4859,5.4688,5.4849,5.4849,5.4848,5.4848,5.4848,0,5.3975,5.402,5.4099,5.4191,5.4257,5.4252,5.4324,5.4379,5.4463,5.4526,5.4596,5.4697,5.478,5.4832,5.4914,5.4962,5.4963,5.4983,5.4978,5.4987,5.4871,5.4846,5.498,5.498,5.498,5.498,5.498,5.498,5.4061,5.4169,5.4193,5.4326,5.437,5.4464,5.4505,5.4561,5.461,5.4724,5.4793,5.4827,5.4884,5.4971,5.5045,5.5058,5.5087,5.5107,5.5118,5.5009,5.4995,5.4982,5.4958,5.5114,5.5114,5.5228,5.5229,5.5229]}]]